Location: Poughquag
(41.6090°N, 73.6820°W)
Time: 19:34:06
(UTC-05:00)

A-11 Canister half - Pass Details

Date: 13 December 2023
Orbit: 1526 x 1682 km, 47.3° (Epoch: 23 February)

Event Time Altitude Azimuth Distance (km) Brightness Sun altitude
Rises 18:09:37 0° 258° (WSW) 4,910 13.3 -18.8°
Reaches altitude 10° 18:12:48 10° 261° (W) 3,932 12.4 -19.4°
Maximum altitude 18:22:56 71° 345° (NNW) 1,761 9.2 -21.3°
Enters shadow 18:28:28 32° 62° (ENE) 2,611 9.6 -22.3°
